Regional Weather Roundup
Issued by NWS

Home | Current Version | Previous Version | Text Only | Print | Product List | Glossary On
Versions: 1 2 3 4 5 6 7 8 9 10 11 12 13 14 15 16 17 18 19 20 21 22 23 24 25 26 27 28 29 30 31 32 33 34 35 36 37 38 39 40 41 42 43 44 45 46 47 48 49 50
000
ASUS43 KLSX 241307
RWRMO

WEATHER SUMMARY FOR MISSOURI
NATIONAL WEATHER SERVICE SPRINGFIELD MO
800 AM CDT WED MAY 24 2017

NOTE: "FAIR" INDICATES FEW OR NO CLOUDS BELOW 12,000 FEET WITH NO
       SIGNIFICANT WEATHER AND/OR OBSTRUCTIONS TO VISIBILITY.
       CURRENT SKY AND/OR WEATHER CONDITIONS ARE NOT AVAILABLE FOR
       CHILLICOTHE AND FARMINGTON.

MOZ001>031-035>038-043-044-053-054-241400-
...NORTHERN AND WESTERN MISSOURI...

CITY           SKY/WX    TMP DP  RH WIND       PRES   REMARKS
KANSAS CTY INT CLOUDY    51  48  89 NW12      29.71S
KANSAS C DTWN  CLOUDY    52  49  89 NW8       29.71S
LEE`S SUMMIT   CLOUDY    51  49  92 NW13      29.71S
ST JOSEPH      CLOUDY    52  49  89 NW12      29.72S
CHILLICOTHE      N/A     52  49  89 NW7       29.68F
KIRKSVILLE     CLOUDY    49  48  97 N8        29.65F FOG

$$
MOZ066>068-077>081-088>096-101>105-241400-
...SOUTHWEST MISSOURI...

CITY           SKY/WX    TMP DP  RH WIND       PRES   REMARKS
SPRINGFIELD    CLOUDY    52  48  86 NW10      29.69S
JOPLIN         MOSUNNY   54  48  80 NW9G18    29.74S
BRANSON        CLOUDY    54  48  82 NW9       29.70S

$$
MOZ032>034-039>042-045>050-055>058-069>072-241400-
...CENTRAL MISSOURI...

CITY           SKY/WX    TMP DP  RH WIND       PRES   REMARKS
COLUMBIA       MOSUNNY   52  49  89 NW9       29.65S
JEFFERSON CITY MOSUNNY   54  47  77 NW10      29.65F
ROLLA          CLOUDY    51  49  92 NW8       29.63S
SEDALIA        CLOUDY    51  50  96 NW9       29.68F
WHITEMAN AFB   CLOUDY    51  51  99 NW8       29.68S
WARRENSBURG    CLOUDY    50  46  87 W8        29.69S
OSAGE BEACH    MOSUNNY   54  47  77 VRB7      29.67F

$$
MOZ051-052-059>065-241400-
...EAST CENTRAL MISSOURI...

CITY           SKY/WX    TMP DP  RH WIND       PRES   REMARKS
ST LOUIS INTL  PTSUNNY   59  51  75 W6        29.60S
SPIRIT OF STL  PTSUNNY   56  51  84 NW7       29.61S
ST CHARLES     SUNNY     57  52  83 W9        29.59F

$$
MOZ072>076-082>087-097>100-106>115-241400-
...SOUTH CENTRAL AND SOUTHEAST MISSOURI...

CITY           SKY/WX    TMP DP  RH WIND       PRES   REMARKS
CAPE GIRARDEAU CLOUDY    59  54  83 N7        29.56F
FARMINGTON     MOSUNNY   55  49  80 NW7       29.61S
POPLAR BLUFF   PTSUNNY   58  53  84 NW8       29.58S
WEST PLAINS    PTSUNNY   54  48  80 N7        29.66R

$$




USA.gov is the U.S. government's official web portal to all federal, state and local government web resources and services.